Tracking 19832 objects as of 24-Aug-2019
HD Live streaming from Space Station
objects crossing your sky now

SL-16 R/B

Track SL-16 R/B now!
10-day predictions
SL-16 R/B is classified as:


NORAD ID: 25861
Int'l Code: 1999-039B
Perigee: 629.5 km
Apogee: 652.7 km
Inclination: 98.2 °
Period: 97.4 minutes
Semi major axis: 7012 km
RCS: 13.5291 m2 (large)
Launch date: July 17, 1999
Source: Commonwealth of Independent States (former USSR) (CIS)
Launch site: TYURATAM MISSILE AND SPACE COMPLEX (TTMTR)

Note: This is a ROCKET BODY
aabbcc
Your satellite tracking list
Your tracking list is empty




NASA's NSSDC Master Catalog

Two Line Element Set (TLE):
1 25861U 99039B   19236.50771731 -.00000002  00000-0  72631-5 0  9991
2 25861  98.1929 228.0289 0016520  38.7530  73.1595 14.78540572 83737
Source of the keplerian elements: AFSPC